Location: Axtheid
(49.6213°N, 11.8205°E)
Time: 09:37:36
(UTC+00:00)

Cosmos 1934 Rocket - Pass Details

Date: 18 February 2020
Orbit: 939 x 998 km, 83.0° (Epoch: 03 April)

Event Time Altitude Azimuth Distance (km) Brightness Sun altitude
Rises 04:06:41 0° 345° (NNW) 3,689 7.0 -21.9°
Reaches altitude 10° 04:09:21 10° 338° (NNW) 2,745 6.2 -21.5°
Maximum altitude 04:15:04 38° 272° (W) 1,468 4.4 -20.6°
Enters shadow 04:17:10 30° 234° (SW) 1,700 4.8 -20.2°
Exits shadow 04:18:55 19° 217° (SW) 2,146 5.4 -19.9°
Drops below altitude 10° 04:20:49 10° 207° (SSW) 2,756 6.1 -19.6°
Sets 04:23:30 0° 200° (SSW) 3,704 6.8 -19.2°
